Location: Assche-ter-Heiden
(50.9174°N, 4.1574°E)
Time: 01:30:39
(UTC+00:00)

Cosmos 2074 Rocket - Pass Details

Date: 20 January 2020
Orbit: 966 x 987 km, 82.9° (Epoch: 28 February)

Event Time Altitude Azimuth Distance (km) Brightness Sun altitude
Rises 04:49:12 0° 347° (NNW) 3,697 6.9 -25.7°
Enters shadow 04:50:09 - 345° (NNW) 3,339 6.6 -25.6°
Exits shadow 04:59:01 45° 234° (SW) 1,312 4.3 -24.2°
Drops below altitude 10° 05:03:46 10° 196° (SSW) 2,710 6.2 -23.4°
Sets 05:06:19 0° 191° (S) 3,650 6.9 -23.0°
